[Date Prev][Date Next][Thread Prev][Thread Next] - [Date Index][Thread Index][Author Index]

2 Line ISS Keps 6-1



ISS
1 25544U 98067A   05151.98988017  .00061524  00000-0  45463-3 0  5957
2 25544 051.6480 343.9039 0005051 190.7979 329.6437 15.72355422373137
----
Via the sarex mailing list at AMSAT.ORG courtesy of AMSAT-NA.
To unsubscribe, send "unsubscribe sarex" to Majordomo@amsat.org



AMSAT Top AMSAT Home